Home   Weather   Incheon   Past weeks

Flag for South Korea Past Weather in Incheon, South Korea — Yesterday and Last 2 Weeks

Now
43 °F

Fog.


Feels Like: 35 °F
Forecast: 21 / 40 °F
Wind: 16 mph from West

Location: Incheon International Airport

Current Time: Feb 20, 2017 at 1:44:10 am

Latest Report: Feb 20, 2017 at 1:00 am


Visibility: 1 mi

Pressure: 29.71 "Hg

Humidity: 93%

Dew Point: 41 °F

Location of IncheonLocation

Past Weather in Incheon — Graph

°F

Incheon Temperature Yesterday

Maximum temperature yesterday: 45 °F (at 6:30 pm)
Minimum temperature yesterday: 25 °F (at 2:30 am)
Average temperature yesterday: 37 °F

High & Low Weather Summary for the Past Weeks

 TemperatureHumidityPressure
High50 °F (Feb 16, 7:00 pm)100% (Feb 5, 12:30 pm)30.54 "Hg (Feb 5, 12:30 pm)
Low19 °F (Feb 10, 4:30 am)26% (Feb 14, 12:00 pm)29.71 "Hg (Feb 19, 11:30 pm)
Average31 °F60%30.21 "Hg
* Reported Feb 5 12:00 am — Feb 20 12:30 am, Incheon, Weather by CustomWeather, © 2017

Note: Actual official high and low records may vary slightly from our data, if they occured in-between our weather recording intervals... More about our weather records

Advertising

Incheon Weather History for the Previous 24 Hours

Scroll right to see more
 ConditionsComfort  
Time TempWeatherWind HumidityBarometerVisibility
12:30 am
Mon, Feb 20
45 °FLight rain. Fog.12 mph93%29.71 "Hg1 mi
12:00 am43 °FLight rain. Fog.13 mph93%29.71 "Hg1 mi
11:30 pm
Sun, Feb 19
43 °FLight rain. Fog.12 mph93%29.71 "Hg1 mi
11:00 pm45 °FLight rain. Fog.12 mph93%29.74 "Hg1 mi
10:30 pm45 °FLight rain. Fog.13 mph87%29.74 "Hg1 mi
10:00 pm45 °FQuite cool.17 mph87%29.74 "Hg1 mi
9:30 pm43 °FLight rain. Fog.17 mph93%29.77 "Hg1 mi
9:00 pm43 °FLight rain. Fog.17 mph87%29.77 "Hg1 mi
8:30 pm45 °FLight rain. Mostly cloudy.21 mph76%29.77 "Hg4 mi
8:00 pm45 °FLight rain. Mostly cloudy.13 mph76%29.77 "Hg4 mi
7:30 pm45 °FLight rain. Mostly cloudy.12 mph76%29.80 "HgN/A
7:00 pm43 °FLight rain. Mostly cloudy.14 mph76%29.77 "HgN/A
6:30 pm45 °FMore clouds than sun.14 mph71%29.80 "HgN/A
6:00 pm41 °FMore clouds than sun.17 mph76%29.80 "HgN/A
5:30 pm43 °FLight rain. More clouds than sun.23 mph71%29.80 "HgN/A
5:00 pm43 °FLight rain. Mostly cloudy.18 mph71%29.83 "HgN/A
4:30 pm43 °FLight rain. Mostly cloudy.22 mph66%29.86 "HgN/A
4:00 pm43 °FMore clouds than sun.20 mph61%29.86 "HgN/A
3:30 pm43 °FMore clouds than sun.21 mph57%29.89 "HgN/A
3:00 pm43 °FMore clouds than sun.20 mph53%29.89 "HgN/A
2:30 pm41 °FMore clouds than sun.22 mph53%29.92 "HgN/A
2:00 pm41 °FBroken clouds.21 mph53%29.92 "HgN/A
1:30 pm41 °FPartly sunny.18 mph39%29.98 "HgN/A
1:00 pm39 °FBroken clouds.18 mph52%29.98 "HgN/A
12:30 pm39 °FPartly sunny.17 mph48%30.04 "HgN/A
12:00 pm39 °FSunny.16 mph52%30.07 "Hg10 mi
11:30 am39 °FSunny.20 mph56%30.07 "Hg10 mi
11:00 am37 °FSunny.18 mph65%30.09 "Hg10 mi
10:30 am36 °FSunny.20 mph70%30.09 "Hg10 mi
10:00 am36 °FBroken clouds.18 mph70%30.09 "HgN/A
9:30 am34 °FBroken clouds.20 mph81%30.09 "HgN/A
9:00 am34 °FBroken clouds.17 mph81%30.12 "HgN/A
8:30 am34 °FSunny.13 mph81%30.15 "Hg10 mi
8:00 am32 °FClear.13 mph87%30.15 "Hg10 mi
7:30 am32 °FClear.14 mph80%30.15 "Hg10 mi
7:00 am30 °FClear.12 mph86%30.12 "Hg5 mi
6:30 am28 °FClear.9 mph86%30.15 "Hg5 mi
6:00 am28 °FClear.9 mph86%30.15 "Hg4 mi
5:30 am28 °FClear.9 mph93%30.15 "Hg4 mi
5:00 am28 °FClear.9 mph86%30.18 "Hg4 mi
4:30 am30 °FClear.7 mph86%30.18 "Hg4 mi
4:00 am30 °FClear.7 mph86%30.21 "Hg5 mi
3:30 am27 °FClear.5 mph86%30.21 "Hg10 mi
3:00 am25 °FClear.2 mph86%30.21 "Hg6 mi
2:30 am25 °FClear.2 mph86%30.24 "Hg6 mi
2:00 am27 °FClear.2 mph86%30.24 "Hg10 mi
1:30 am28 °FClear.1 mph80%30.24 "Hg10 mi
1:00 am30 °FClear.1 mph80%30.24 "Hg10 mi
Weather by CustomWeather, © 2017

See weather overviewHow to use our weather pages